Location: *
(42.0175°N, 9.4056°E)
Time: 11:04:33
(UTC+00:00)

BREEZE M DEB (TANK) - Pass Details

Date: 25 August 2019
Orbit: 285 x 14545 km, 49.5° (Epoch: 18 September)

Event Time Altitude Azimuth Distance (km) Brightness Sun altitude
Rises 21:59:09 0° 289° (WNW) 2,331 6.1 -33.8°
Enters shadow 22:00:33 10° 299° (WNW) 1,746 5.4 -34.0°
Exits shadow 22:03:13 37° 350° (N) 1,197 4.3 -34.2°
Maximum altitude 22:03:55 39° 12° (NNE) 1,272 4.3 -34.2°
Drops below altitude 10° 22:13:53 10° 79° (E) 5,160 7.1 -34.9°
Sets 22:22:09 0° 86° (E) 8,307 8.2 -35.5°
